CRUISE,DATE,TIME,LAT,LONG,ATM_PRE,FCO2_WAT,EQ_TMP,SST,SSS
ARGAU-2,1/31/2002,6:47,-41.58,-61.55,1001.9,383.3,18.93,18.53,33.80
ARGAU-2,1/31/2002,6:58,-41.62,-61.56,1001.8,394.5,18.83,18.47,33.79
ARGAU-2,1/31/2002,7:17,-41.7,-61.56,1001.8,385.2,19.09,18.81,33.83
ARGAU-2,1/31/2002,7:27,-41.74,-61.57,1001.6,375.5,19.18,18.79,33.83
ARGAU-2,1/31/2002,7:37,-41.78,-61.57,1001.7,382.2,19.14,18.82,33.80
ARGAU-2,1/31/2002,7:48,-41.82,-61.58,1001.6,367.0,19.12,18.71,33.80
ARGAU-2,1/31/2002,7:58,-41.86,-61.58,1001.5,353.4,18.83,18.36,33.74
ARGAU-2,1/31/2002,8:08,-41.9,-61.58,1001.5,342.9,18.61,18.27,33.70
ARGAU-2,1/31/2002,8:27,-41.98,-61.59,1001.6,349.7,19.12,18.82,33.81
ARGAU-2,1/31/2002,8:38,-42.02,-61.6,1001.5,354.2,19.17,18.80,33.82
ARGAU-2,1/31/2002,8:48,-42.06,-61.6,1001.4,340.7,19.08,18.73,33.81
ARGAU-2,1/31/2002,8:58,-42.11,-61.61,1001.2,338.1,19.14,18.83,33.82
ARGAU-2,1/31/2002,9:09,-42.15,-61.61,1001.1,368.7,19.43,19.17,33.85
ARGAU-2,1/31/2002,9:19,-42.19,-61.62,1001.6,367.8,19.43,19.07,33.77
ARGAU-2,1/31/2002,9:38,-42.27,-61.63,1001.8,368.4,19.43,19.12,33.79
ARGAU-2,1/31/2002,9:48,-42.31,-61.64,1002.2,378.6,19.48,19.16,33.83
ARGAU-2,1/31/2002,9:58,-42.35,-61.65,1002.5,383.9,19.49,19.18,33.85
ARGAU-2,1/31/2002,10:09,-42.39,-61.65,1002.5,380.7,19.52,19.19,33.82
ARGAU-2,1/31/2002,10:19,-42.43,-61.65,1002.6,380.8,19.49,19.16,33.84
ARGAU-2,1/31/2002,10:29,-42.47,-61.65,1002.8,378.4,19.47,19.12,33.83
ARGAU-2,1/31/2002,10:49,-42.54,-61.66,1003.3,355.1,19.10,18.77,33.63
ARGAU-2,1/31/2002,10:59,-42.58,-61.66,1003.5,356.9,19.10,18.76,33.61
ARGAU-2,1/31/2002,11:09,-42.62,-61.66,1003.9,359.0,19.09,18.77,33.68
ARGAU-2,1/31/2002,11:19,-42.65,-61.66,1004.4,358.2,19.11,18.78,33.70
ARGAU-2,1/31/2002,11:29,-42.69,-61.67,1004.8,357.9,19.10,18.76,33.70
ARGAU-2,1/31/2002,11:40,-42.72,-61.67,1005.1,358.4,19.08,18.75,33.70
ARGAU-2,1/31/2002,11:59,-42.79,-61.67,1005.3,358.4,19.07,18.75,33.70
ARGAU-2,1/31/2002,12:09,-42.83,-61.67,1005.4,360.1,19.09,18.77,33.71
ARGAU-2,1/31/2002,12:20,-42.86,-61.68,1005.4,362.5,19.08,18.75,33.72
ARGAU-2,1/31/2002,12:30,-42.9,-61.68,1005.8,359.7,19.05,18.72,33.74
ARGAU-2,1/31/2002,12:41,-42.94,-61.68,1005.8,358.7,19.00,18.66,33.74
ARGAU-2,1/31/2002,12:51,-42.97,-61.68,1005.8,361.3,18.96,18.64,33.73
ARGAU-2,1/31/2002,13:37,-43.13,-61.69,1006.0,359.7,18.86,18.53,33.73
ARGAU-2,1/31/2002,13:47,-43.17,-61.69,1006.2,339.9,18.72,18.36,33.68
ARGAU-2,1/31/2002,13:58,-43.21,-61.69,1006.3,311.7,18.57,18.24,33.66
ARGAU-2,1/31/2002,14:08,-43.24,-61.69,1006.6,297.7,18.52,18.20,33.66
ARGAU-2,1/31/2002,14:18,-43.28,-61.68,1006.8,294.5,18.45,18.12,33.65
ARGAU-2,1/31/2002,14:29,-43.32,-61.68,1007.1,293.9,18.41,18.09,33.64
ARGAU-2,1/31/2002,14:48,-43.39,-61.68,1007.4,308.5,18.27,17.95,33.60
ARGAU-2,1/31/2002,14:58,-43.42,-61.68,1007.4,311.7,18.28,17.96,33.59
ARGAU-2,1/31/2002,15:08,-43.46,-61.68,1007.6,312.7,18.24,17.92,33.59
ARGAU-2,1/31/2002,15:18,-43.49,-61.68,1007.6,314.6,18.15,17.81,33.57
ARGAU-2,1/31/2002,15:28,-43.53,-61.68,1007.5,314.3,18.11,17.79,33.60
ARGAU-2,1/31/2002,15:39,-43.58,-61.68,1007.6,310.2,18.09,17.76,33.60
ARGAU-2,1/31/2002,15:58,-43.66,-61.68,1007.9,306.2,18.07,17.73,33.60
ARGAU-2,1/31/2002,16:09,-43.7,-61.67,1008.2,311.4,18.01,17.64,33.57
ARGAU-2,1/31/2002,16:19,-43.75,-61.67,1008.1,311.5,17.99,17.65,33.58
ARGAU-2,1/31/2002,16:29,-43.79,-61.67,1008.4,311.7,17.89,17.47,33.54
ARGAU-2,1/31/2002,16:39,-43.84,-61.68,1008.5,313.9,17.71,17.34,33.52
ARGAU-2,1/31/2002,16:50,-43.88,-61.68,1008.6,313.3,17.68,17.31,33.52
ARGAU-2,1/31/2002,17:09,-43.97,-61.68,1008.9,312.4,17.64,17.29,33.52
ARGAU-2,1/31/2002,17:19,-44.01,-61.68,1008.9,311.2,17.63,17.26,33.52
ARGAU-2,1/31/2002,17:30,-44.05,-61.69,1008.9,311.0,17.55,17.16,33.50
ARGAU-2,1/31/2002,17:40,-44.1,-61.69,1009.0,311.0,17.54,17.16,33.49
ARGAU-2,1/31/2002,17:50,-44.14,-61.69,1009.0,309.8,17.52,17.14,33.49
ARGAU-2,1/31/2002,18:00,-44.18,-61.69,1009.1,308.2,17.53,17.14,33.51
ARGAU-2,1/31/2002,18:20,-44.27,-61.7,1009.4,300.8,17.34,16.95,33.50
ARGAU-2,1/31/2002,18:30,-44.31,-61.7,1009.3,298.8,17.28,16.90,33.49
ARGAU-2,1/31/2002,18:40,-44.35,-61.71,1009.5,298.4,17.24,16.87,33.49
ARGAU-2,1/31/2002,18:51,-44.39,-61.71,1009.6,298.4,17.22,16.83,33.48
ARGAU-2,1/31/2002,19:01,-44.44,-61.71,1009.8,298.2,17.14,16.76,33.48
ARGAU-2,1/31/2002,19:11,-44.48,-61.72,1009.9,297.0,17.13,16.76,33.48
ARGAU-2,1/31/2002,19:30,-44.56,-61.73,1010.1,294.7,17.13,16.77,33.48
ARGAU-2,1/31/2002,19:41,-44.6,-61.73,1010.2,295.6,17.14,16.78,33.47
ARGAU-2,1/31/2002,19:51,-44.65,-61.74,1010.2,296.5,17.15,16.78,33.47
ARGAU-2,1/31/2002,20:01,-44.69,-61.74,1010.3,296.5,17.14,16.78,33.47
ARGAU-2,1/31/2002,20:12,-44.73,-61.75,1010.4,297.8,17.16,16.81,33.47
ARGAU-2,1/31/2002,20:22,-44.77,-61.75,1010.7,299.8,17.18,16.82,33.47
ARGAU-2,1/31/2002,21:08,-44.96,-61.78,1010.9,302.5,17.10,16.73,33.47
ARGAU-2,1/31/2002,21:19,-45.01,-61.79,1011.1,301.7,17.11,16.70,33.47
ARGAU-2,1/31/2002,21:29,-45.05,-61.79,1011.2,301.0,17.03,16.60,33.47
ARGAU-2,1/31/2002,21:39,-45.09,-61.79,1011.4,297.4,16.95,16.54,33.49
ARGAU-2,1/31/2002,21:50,-45.14,-61.8,1011.5,291.1,17.00,16.56,33.52
ARGAU-2,1/31/2002,22:00,-45.18,-61.8,1011.6,297.2,17.08,16.55,33.48
ARGAU-2,1/31/2002,22:19,-45.26,-61.8,1012.0,308.3,17.11,16.38,33.45
ARGAU-2,1/31/2002,22:29,-45.3,-61.8,1012.0,305.3,16.87,16.25,33.45
ARGAU-2,2/1/2002,0:40,-45.86,-61.81,1013.9,295.5,16.35,15.88,33.45
ARGAU-2,2/1/2002,0:51,-45.91,-61.82,1014.0,295.6,16.32,15.89,33.44
ARGAU-2,2/1/2002,1:01,-45.95,-61.82,1014.0,297.0,16.31,15.86,33.43
ARGAU-2,2/1/2002,1:11,-46,-61.82,1014.1,293.9,16.24,15.81,33.47
ARGAU-2,2/1/2002,1:22,-46.04,-61.82,1014.1,288.4,16.30,15.88,33.56
ARGAU-2,2/1/2002,1:32,-46.09,-61.83,1014.2,286.2,16.31,15.88,33.59
ARGAU-2,2/1/2002,1:51,-46.18,-61.84,1014.2,288.0,16.22,15.75,33.59
ARGAU-2,2/1/2002,2:01,-46.22,-61.84,1014.3,289.2,16.12,15.69,33.62
ARGAU-2,2/1/2002,2:11,-46.27,-61.85,1014.3,288.4,16.12,15.67,33.64
ARGAU-2,2/1/2002,2:22,-46.31,-61.85,1014.1,282.3,15.99,15.53,33.66
ARGAU-2,2/1/2002,2:32,-46.36,-61.85,1014.4,275.6,15.90,15.45,33.64
ARGAU-2,2/1/2002,2:42,-46.4,-61.86,1014.5,273.6,15.83,15.37,33.63
ARGAU-2,2/1/2002,3:02,-46.49,-61.87,1014.5,264.5,15.51,15.06,33.60
ARGAU-2,2/1/2002,3:12,-46.54,-61.87,1014.6,263.5,15.53,15.12,33.63
ARGAU-2,2/1/2002,3:22,-46.58,-61.88,1014.7,263.7,15.52,15.08,33.64
ARGAU-2,2/1/2002,3:33,-46.63,-61.88,1014.7,267.7,15.43,15.00,33.62
ARGAU-2,2/1/2002,3:43,-46.68,-61.89,1014.7,271.5,15.44,15.02,33.59
ARGAU-2,2/1/2002,3:53,-46.72,-61.89,1014.7,272.0,15.33,14.86,33.53
ARGAU-2,2/1/2002,4:40,-46.93,-61.91,1014.5,275.8,15.32,14.84,33.52
ARGAU-2,2/1/2002,4:50,-46.98,-61.91,1014.5,275.1,15.32,14.79,33.50
ARGAU-2,2/1/2002,5:00,-47.03,-61.92,1014.3,273.3,15.22,14.71,33.48
ARGAU-2,2/1/2002,5:10,-47.07,-61.92,1014.3,273.0,15.23,14.75,33.50
ARGAU-2,2/1/2002,5:21,-47.12,-61.92,1014.2,274.7,15.27,14.75,33.50
ARGAU-2,2/1/2002,5:31,-47.16,-61.93,1014.3,275.0,15.16,14.63,33.48
ARGAU-2,2/1/2002,5:50,-47.25,-61.93,1014.3,273.0,14.92,14.39,33.47
ARGAU-2,2/1/2002,6:01,-47.3,-61.93,1014.4,272.6,14.95,14.49,33.46
ARGAU-2,2/1/2002,6:11,-47.34,-61.94,1014.4,272.2,15.08,14.60,33.46
ARGAU-2,2/1/2002,6:21,-47.39,-61.94,1014.5,270.7,15.01,14.44,33.47
ARGAU-2,2/1/2002,6:32,-47.43,-61.94,1014.6,271.7,14.73,14.18,33.51
ARGAU-2,2/1/2002,6:42,-47.48,-61.94,1014.6,273.1,14.61,14.06,33.50
ARGAU-2,2/1/2002,7:01,-47.56,-61.95,1014.3,279.5,14.54,14.04,33.50
ARGAU-2,2/1/2002,7:11,-47.61,-61.95,1013.9,278.7,14.49,13.94,33.50
ARGAU-2,2/1/2002,7:22,-47.65,-61.95,1014.0,268.1,14.35,13.83,33.52
ARGAU-2,2/1/2002,7:32,-47.7,-61.95,1014.0,270.1,14.37,13.83,33.51
ARGAU-2,2/1/2002,7:42,-47.74,-61.95,1014.2,267.2,14.29,13.75,33.52
ARGAU-2,2/1/2002,7:52,-47.79,-61.95,1014.3,263.9,14.23,13.70,33.53
ARGAU-2,2/1/2002,8:12,-47.87,-61.95,1014.2,279.3,14.32,13.82,33.49
ARGAU-2,2/1/2002,8:22,-47.91,-61.95,1014.1,284.9,14.35,13.85,33.47
ARGAU-2,2/1/2002,8:32,-47.96,-61.95,1014.2,280.1,14.36,13.85,33.48
ARGAU-2,2/1/2002,8:43,-48,-61.95,1014.3,274.6,14.31,13.78,33.49
ARGAU-2,2/1/2002,8:53,-48.05,-61.95,1014.4,271.2,14.26,13.73,33.50
ARGAU-2,2/1/2002,9:03,-48.09,-61.96,1014.5,270.1,14.14,13.60,33.50
ARGAU-2,2/1/2002,9:22,-48.18,-61.96,1014.4,262.9,13.98,13.48,33.51
ARGAU-2,2/1/2002,9:33,-48.22,-61.96,1014.4,264.0,13.99,13.48,33.50
ARGAU-2,2/1/2002,9:43,-48.26,-61.97,1014.5,280.5,14.03,13.54,33.46
ARGAU-2,2/1/2002,9:53,-48.31,-61.97,1014.5,289.0,14.06,13.55,33.45
ARGAU-2,2/1/2002,10:04,-48.35,-61.97,1014.3,287.5,13.99,13.46,33.45
ARGAU-2,2/1/2002,10:14,-48.4,-61.98,1014.3,287.4,13.98,13.48,33.45
ARGAU-2,2/1/2002,10:33,-48.48,-61.98,1014.0,278.9,13.97,13.46,33.44
ARGAU-2,2/1/2002,10:44,-48.53,-61.99,1013.8,280.2,13.99,13.49,33.44
ARGAU-2,2/1/2002,10:54,-48.57,-62,1013.7,282.1,13.98,13.45,33.42
ARGAU-2,2/1/2002,11:04,-48.62,-62,1013.8,279.6,13.90,13.35,33.45
ARGAU-2,2/1/2002,11:15,-48.66,-62.01,1013.8,268.0,13.77,13.24,33.49
ARGAU-2,2/1/2002,11:25,-48.71,-62.02,1013.7,263.3,13.74,13.23,33.50
ARGAU-2,2/1/2002,12:11,-48.91,-62.04,1013.4,260.3,13.49,12.96,33.52
ARGAU-2,2/1/2002,12:21,-48.96,-62.05,1013.3,263.6,13.43,12.88,33.51
ARGAU-2,2/1/2002,12:31,-49.01,-62.05,1013.1,269.6,13.28,12.78,33.51
ARGAU-2,2/1/2002,12:41,-49.05,-62.06,1013.1,268.0,13.39,12.88,33.49
ARGAU-2,2/1/2002,12:52,-49.1,-62.06,1012.7,271.4,13.28,12.73,33.53
ARGAU-2,2/1/2002,13:02,-49.15,-62.06,1012.7,273.7,13.24,12.72,33.54
ARGAU-2,2/1/2002,13:21,-49.24,-62.06,1012.3,269.3,13.30,12.80,33.51
ARGAU-2,2/1/2002,13:31,-49.28,-62.06,1012.2,261.5,13.33,12.82,33.50
ARGAU-2,2/1/2002,13:42,-49.33,-62.06,1012.0,259.8,13.35,12.83,33.49
ARGAU-2,2/1/2002,13:52,-49.38,-62.07,1012.0,258.5,13.33,12.81,33.47
ARGAU-2,2/1/2002,14:02,-49.43,-62.07,1011.9,260.6,13.31,12.79,33.50
ARGAU-2,2/1/2002,14:13,-49.47,-62.07,1011.8,261.1,13.29,12.77,33.49
ARGAU-2,2/1/2002,14:32,-49.56,-62.08,1011.2,257.3,13.25,12.73,33.48
ARGAU-2,2/1/2002,14:42,-49.61,-62.08,1010.9,256.5,13.23,12.71,33.48
ARGAU-2,2/1/2002,14:52,-49.66,-62.09,1010.6,256.7,13.19,12.64,33.48
ARGAU-2,2/1/2002,15:03,-49.71,-62.09,1010.5,263.5,13.06,12.49,33.47
ARGAU-2,2/1/2002,15:13,-49.76,-62.09,1010.2,271.2,12.93,12.36,33.48
ARGAU-2,2/1/2002,15:23,-49.81,-62.09,1010.0,275.7,12.78,12.23,33.48
ARGAU-2,2/1/2002,15:42,-49.9,-62.1,1009.9,272.4,12.80,12.27,33.48
ARGAU-2,2/1/2002,15:53,-49.94,-62.1,1009.8,279.1,12.66,12.05,33.47
ARGAU-2,2/1/2002,16:03,-49.99,-62.1,1009.7,291.9,12.50,11.96,33.48
ARGAU-2,2/1/2002,16:13,-50.04,-62.1,1009.4,293.4,12.48,11.94,33.46
ARGAU-2,2/1/2002,16:23,-50.09,-62.11,1009.1,287.1,12.45,11.89,33.46
ARGAU-2,2/1/2002,16:33,-50.13,-62.11,1008.9,279.5,12.43,11.91,33.47
ARGAU-2,2/1/2002,16:53,-50.22,-62.1,1008.6,286.1,12.10,11.46,33.44
ARGAU-2,2/1/2002,17:03,-50.27,-62.11,1008.5,298.2,11.87,11.31,33.48
ARGAU-2,2/1/2002,17:14,-50.32,-62.11,1008.3,297.1,11.86,11.27,33.49
ARGAU-2,2/1/2002,17:24,-50.37,-62.11,1008.2,300.4,11.71,11.13,33.52
ARGAU-2,2/1/2002,17:34,-50.41,-62.12,1008.2,297.3,11.82,11.34,33.44
ARGAU-2,2/1/2002,17:44,-50.46,-62.12,1008.2,291.6,11.97,11.42,33.42
ARGAU-2,2/1/2002,18:04,-50.55,-62.12,1007.8,300.2,11.62,11.03,33.48
ARGAU-2,2/1/2002,18:14,-50.59,-62.12,1007.6,301.3,11.54,11.03,33.49
ARGAU-2,2/1/2002,18:24,-50.64,-62.13,1007.8,297.8,11.57,10.96,33.47
ARGAU-2,2/1/2002,18:35,-50.68,-62.14,1007.7,300.1,11.50,10.94,33.49
ARGAU-2,2/1/2002,18:45,-50.73,-62.14,1007.6,297.3,11.38,10.77,33.56
ARGAU-2,2/1/2002,18:55,-50.78,-62.14,1007.6,298.3,11.26,10.69,33.59
ARGAU-2,2/1/2002,19:41,-50.98,-62.16,1007.4,302.2,11.06,10.46,33.59
ARGAU-2,2/1/2002,19:51,-51.02,-62.16,1007.4,307.9,10.92,10.32,33.60
ARGAU-2,2/1/2002,20:02,-51.07,-62.16,1007.5,311.6,10.84,10.30,33.64
ARGAU-2,2/1/2002,20:12,-51.11,-62.16,1007.6,313.2,10.84,10.25,33.65
ARGAU-2,2/1/2002,20:22,-51.16,-62.16,1007.4,315.6,10.75,10.22,33.67
ARGAU-2,2/1/2002,20:32,-51.21,-62.16,1007.4,314.8,10.86,10.30,33.67
ARGAU-2,2/1/2002,20:52,-51.29,-62.16,1007.2,314.5,10.68,10.12,33.68
ARGAU-2,2/1/2002,21:02,-51.34,-62.16,1007.3,314.4,10.73,10.17,33.69
ARGAU-2,2/1/2002,21:12,-51.39,-62.16,1007.0,313.6,10.73,10.16,33.69
ARGAU-2,2/1/2002,21:22,-51.43,-62.16,1007.2,313.9,10.67,10.08,33.69
ARGAU-2,2/1/2002,21:33,-51.48,-62.16,1007.0,315.8,10.63,10.08,33.70
ARGAU-2,2/1/2002,21:43,-51.52,-62.16,1007.2,315.1,10.72,10.20,33.67
ARGAU-2,2/1/2002,22:02,-51.61,-62.16,1007.2,312.4,10.77,10.21,33.69
ARGAU-2,2/1/2002,22:13,-51.66,-62.16,1007.2,309.4,10.80,10.26,33.70
ARGAU-2,2/1/2002,22:23,-51.7,-62.15,1007.1,309.8,10.66,9.99,33.69
ARGAU-2,2/1/2002,22:33,-51.75,-62.15,1007.3,316.9,10.42,9.86,33.68
ARGAU-2,2/1/2002,22:43,-51.79,-62.15,1007.4,315.6,10.51,9.97,33.70
ARGAU-2,2/1/2002,22:54,-51.84,-62.15,1007.5,314.9,10.54,10.00,33.70
ARGAU-2,2/1/2002,23:13,-51.92,-62.15,1007.5,313.7,10.51,9.89,33.69
ARGAU-2,2/1/2002,23:24,-51.97,-62.15,1007.7,315.5,10.43,9.85,33.70
ARGAU-2,2/1/2002,23:34,-52.01,-62.15,1007.6,314.8,10.52,9.93,33.69
ARGAU-2,2/1/2002,23:44,-52.05,-62.15,1007.8,312.5,10.51,9.75,33.69
ARGAU-2,2/1/2002,23:55,-52.1,-62.15,1007.7,315.6,10.16,9.52,33.69
ARGAU-2,2/2/2002,0:05,-52.14,-62.15,1007.6,309.6,10.11,9.34,33.71
ARGAU-2,2/2/2002,0:24,-52.22,-62.15,1008.0,310.8,10.06,9.31,33.72
ARGAU-2,2/2/2002,0:34,-52.26,-62.16,1008.0,316.1,9.80,9.10,33.73
ARGAU-2,2/2/2002,0:45,-52.31,-62.16,1007.9,319.0,9.72,8.93,33.73
ARGAU-2,2/2/2002,0:55,-52.35,-62.17,1007.9,326.6,9.26,8.46,33.77
ARGAU-2,2/2/2002,1:05,-52.39,-62.17,1008.1,327.1,8.98,8.28,33.77
ARGAU-2,2/2/2002,1:16,-52.44,-62.17,1008.2,322.8,9.20,8.37,33.81
ARGAU-2,2/2/2002,1:35,-52.52,-62.19,1008.1,323.7,9.65,9.10,33.78
ARGAU-2,2/2/2002,1:45,-52.56,-62.19,1008.1,323.7,9.71,9.02,33.76
ARGAU-2,2/2/2002,1:55,-52.6,-62.2,1008.3,323.6,9.64,8.92,33.77
ARGAU-2,2/2/2002,2:06,-52.65,-62.22,1008.3,329.0,9.42,8.74,33.78
ARGAU-2,2/2/2002,2:16,-52.69,-62.23,1008.2,326.7,9.41,8.72,33.80
ARGAU-2,2/2/2002,2:26,-52.74,-62.24,1008.3,325.2,9.27,8.55,33.82
ARGAU-2,2/2/2002,3:12,-52.94,-62.22,1008.4,329.8,9.58,9.03,33.80
ARGAU-2,2/2/2002,3:22,-52.98,-62.23,1008.5,321.6,9.93,9.34,33.75
ARGAU-2,2/2/2002,3:33,-53.03,-62.23,1008.5,321.4,9.68,8.87,33.75
ARGAU-2,2/2/2002,3:43,-53.07,-62.23,1008.7,330.3,9.38,8.73,33.77
ARGAU-2,2/2/2002,3:53,-53.12,-62.22,1008.8,328.6,9.35,8.60,33.80
ARGAU-2,2/2/2002,4:04,-53.16,-62.22,1008.8,335.2,8.91,8.17,33.87
ARGAU-2,2/2/2002,4:23,-53.24,-62.2,1008.9,332.9,8.67,7.98,33.92
ARGAU-2,2/2/2002,4:33,-53.29,-62.19,1008.8,334.2,8.64,7.97,33.92
ARGAU-2,2/2/2002,4:43,-53.34,-62.19,1008.9,339.3,8.70,8.05,33.87
ARGAU-2,2/2/2002,4:53,-53.38,-62.18,1009.0,341.5,8.73,8.08,33.87
ARGAU-2,2/2/2002,5:04,-53.43,-62.17,1009.2,339.2,8.75,8.04,33.88
ARGAU-2,2/2/2002,5:14,-53.48,-62.16,1009.4,339.1,8.62,7.92,33.90
ARGAU-2,2/2/2002,5:34,-53.57,-62.15,1009.5,335.0,8.54,7.95,33.96
ARGAU-2,2/2/2002,5:44,-53.61,-62.15,1009.4,323.6,9.06,8.52,34.02
ARGAU-2,2/2/2002,5:54,-53.66,-62.15,1009.5,313.8,9.24,8.62,34.06
ARGAU-2,2/2/2002,6:04,-53.71,-62.15,1009.6,314.1,9.19,8.52,34.06
ARGAU-2,2/2/2002,6:15,-53.76,-62.15,1009.9,317.0,9.11,8.43,34.07
ARGAU-2,2/2/2002,6:25,-53.8,-62.15,1010.2,319.8,9.07,8.47,34.07
ARGAU-2,2/2/2002,6:44,-53.89,-62.16,1010.4,323.4,8.97,8.31,34.07
ARGAU-2,2/2/2002,6:54,-53.94,-62.16,1010.3,322.7,8.92,8.27,34.07
ARGAU-2,2/2/2002,7:05,-53.99,-62.16,1010.3,325.4,8.90,8.19,34.06
ARGAU-2,2/2/2002,7:15,-54.04,-62.16,1010.2,330.2,8.63,7.93,34.06
ARGAU-2,2/2/2002,7:25,-54.09,-62.16,1010.2,337.1,8.30,7.52,34.06
ARGAU-2,2/2/2002,7:36,-54.14,-62.16,1010.3,347.1,8.13,7.58,34.07
ARGAU-2,2/2/2002,7:55,-54.23,-62.15,1010.4,342.4,8.17,7.50,34.07
ARGAU-2,2/2/2002,8:05,-54.28,-62.15,1010.7,342.1,8.18,7.58,34.07
ARGAU-2,2/2/2002,8:15,-54.32,-62.15,1010.7,333.4,8.52,7.95,34.08
ARGAU-2,2/2/2002,8:26,-54.37,-62.15,1010.7,325.4,8.60,7.97,34.07
ARGAU-2,2/2/2002,8:36,-54.42,-62.15,1011.0,331.3,8.28,7.43,34.07
ARGAU-2,2/2/2002,8:46,-54.47,-62.15,1010.8,351.4,7.90,7.26,34.09
ARGAU-2,2/2/2002,9:06,-54.56,-62.14,1010.9,359.9,7.52,6.74,34.08
ARGAU-2,2/2/2002,9:16,-54.6,-62.14,1010.9,366.3,7.07,6.32,34.08
ARGAU-2,2/2/2002,9:27,-54.65,-62.14,1010.6,369.2,7.08,6.47,34.08
ARGAU-2,2/2/2002,9:37,-54.7,-62.14,1010.9,362.5,7.31,6.65,34.06
ARGAU-2,2/2/2002,9:47,-54.75,-62.14,1010.8,360.5,7.42,6.80,34.04
ARGAU-2,2/2/2002,9:57,-54.79,-62.14,1011.0,359.8,7.44,6.76,34.05
ARGAU-2,2/2/2002,10:43,-55,-62.14,1010.8,359.6,7.17,6.42,34.06
ARGAU-2,2/2/2002,10:53,-55.04,-62.14,1011.0,362.4,7.07,6.38,34.09
ARGAU-2,2/2/2002,11:04,-55.09,-62.14,1010.3,363.0,7.07,6.46,34.08
ARGAU-2,2/2/2002,11:14,-55.14,-62.14,1010.4,360.5,7.26,6.57,34.05
ARGAU-2,2/2/2002,11:24,-55.18,-62.14,1010.2,361.7,7.16,6.51,34.06
ARGAU-2,2/2/2002,11:35,-55.23,-62.15,1010.3,362.9,7.23,6.63,34.06
ARGAU-2,2/2/2002,11:54,-55.32,-62.15,1009.9,360.3,7.42,6.78,34.03
ARGAU-2,2/2/2002,12:04,-55.36,-62.15,1009.6,359.9,7.44,6.76,34.04
ARGAU-2,2/2/2002,12:14,-55.41,-62.15,1009.6,359.8,7.37,6.70,34.04
ARGAU-2,2/2/2002,12:24,-55.46,-62.15,1009.6,361.5,7.25,6.56,34.05
ARGAU-2,2/2/2002,12:35,-55.5,-62.14,1009.2,364.2,7.34,6.75,34.05
ARGAU-2,2/2/2002,12:45,-55.55,-62.14,1009.1,360.9,7.51,6.80,34.02
ARGAU-2,2/2/2002,13:04,-55.63,-62.18,1008.9,363.6,7.16,6.48,34.07
ARGAU-2,2/2/2002,13:15,-55.61,-62.23,1008.9,362.1,7.18,6.39,34.07
ARGAU-2,2/2/2002,13:25,-55.66,-62.24,1009.0,361.4,6.79,5.97,34.08
ARGAU-2,2/2/2002,13:35,-55.71,-62.24,1009.0,360.8,6.65,5.91,34.08
ARGAU-2,2/2/2002,13:46,-55.75,-62.24,1009.1,361.1,6.61,5.93,34.08
ARGAU-2,2/2/2002,13:56,-55.78,-62.24,1008.7,362.0,6.73,6.09,34.09
ARGAU-2,2/2/2002,14:15,-55.87,-62.24,1008.6,361.5,6.93,6.24,34.09
ARGAU-2,2/2/2002,14:26,-55.91,-62.24,1009.4,361.4,6.87,6.15,34.09
ARGAU-2,2/2/2002,14:36,-55.96,-62.24,1008.4,362.1,6.84,6.16,34.10
ARGAU-2,2/2/2002,14:46,-56,-62.24,1008.5,361.6,6.85,6.14,34.09
ARGAU-2,2/2/2002,14:56,-56.05,-62.23,1008.2,362.5,6.82,6.12,34.09
ARGAU-2,2/2/2002,15:07,-56.09,-62.23,1008.1,361.7,6.77,6.05,34.08
ARGAU-2,2/2/2002,15:26,-56.18,-62.22,1007.8,359.9,6.61,5.85,34.08
ARGAU-2,2/2/2002,15:36,-56.23,-62.21,1007.7,359.7,6.41,5.69,34.07
ARGAU-2,2/2/2002,15:47,-56.27,-62.2,1008.1,360.1,6.34,5.60,34.06
ARGAU-2,2/2/2002,15:57,-56.32,-62.2,1008.0,360.9,6.30,5.65,34.06
ARGAU-2,2/2/2002,16:07,-56.37,-62.19,1007.7,360.9,6.47,5.81,34.08
ARGAU-2,2/2/2002,16:17,-56.41,-62.18,1007.4,363.6,6.25,5.77,34.07
ARGAU-2,2/2/2002,16:37,-56.5,-62.18,1007.2,357.3,7.26,6.74,34.07
ARGAU-2,2/2/2002,16:47,-56.53,-62.16,1007.5,354.6,7.31,6.70,34.08
ARGAU-2,2/2/2002,16:57,-56.55,-62.13,1007.7,353.4,7.38,6.75,34.08
ARGAU-2,2/2/2002,17:08,-56.56,-62.1,1007.6,354.0,7.38,6.70,34.08
ARGAU-2,2/2/2002,17:18,-56.59,-62.06,1007.1,356.4,7.29,6.63,34.08
ARGAU-2,2/2/2002,17:28,-56.6,-62.02,1007.2,354.5,7.31,6.62,34.08
ARGAU-2,2/2/2002,18:14,-56.67,-61.83,1007.1,355.4,7.44,6.78,34.10
ARGAU-2,2/2/2002,18:24,-56.68,-61.79,1007.0,353.2,7.44,6.77,34.10
ARGAU-2,2/2/2002,18:35,-56.7,-61.75,1007.0,352.3,7.43,6.76,34.09
ARGAU-2,2/2/2002,18:45,-56.72,-61.72,1007.2,352.9,7.38,6.71,34.09
ARGAU-2,2/2/2002,18:55,-56.76,-61.71,1006.4,354.3,7.29,6.58,34.08
ARGAU-2,2/2/2002,19:06,-56.8,-61.7,1006.0,356.4,7.02,6.20,34.06
ARGAU-2,2/2/2002,19:25,-56.88,-61.69,1006.0,369.6,6.46,5.82,34.00
ARGAU-2,2/2/2002,19:35,-56.92,-61.68,1006.4,368.0,6.42,5.65,33.98
ARGAU-2,2/2/2002,19:45,-56.96,-61.69,1005.8,370.6,6.29,5.57,33.95
ARGAU-2,2/2/2002,19:55,-56.99,-61.71,1005.9,370.6,6.26,5.57,33.93
ARGAU-2,2/2/2002,20:06,-57.03,-61.73,1005.7,366.6,6.24,5.54,33.96
ARGAU-2,2/2/2002,20:16,-57.07,-61.74,1005.8,367.2,6.23,5.54,33.95
ARGAU-2,2/2/2002,20:35,-57.14,-61.79,1005.8,369.3,6.26,5.57,33.96
ARGAU-2,2/2/2002,20:46,-57.17,-61.82,1005.3,370.1,6.28,5.63,33.94
ARGAU-2,2/2/2002,20:56,-57.21,-61.84,1005.4,365.7,6.49,5.80,34.00
ARGAU-2,2/2/2002,21:06,-57.24,-61.87,1004.8,362.7,6.62,5.96,34.03
ARGAU-2,2/2/2002,21:16,-57.28,-61.9,1004.8,357.9,6.67,5.99,34.04
ARGAU-2,2/2/2002,21:27,-57.31,-61.92,1005.0,360.3,6.64,5.93,34.03
ARGAU-2,2/2/2002,21:46,-57.38,-61.97,1004.7,365.0,6.49,5.75,34.02
ARGAU-2,2/2/2002,21:56,-57.41,-62,1005.2,369.1,6.36,5.63,34.01
ARGAU-2,2/2/2002,22:07,-57.45,-62.02,1004.6,370.2,6.34,5.65,34.01
ARGAU-2,2/2/2002,22:17,-57.48,-62.05,1004.2,368.8,6.39,5.66,34.01
ARGAU-2,2/2/2002,22:27,-57.52,-62.08,1004.5,368.0,6.33,5.62,34.00
ARGAU-2,2/2/2002,22:37,-57.55,-62.1,1003.8,366.9,6.27,5.50,33.99
ARGAU-2,2/2/2002,22:57,-57.62,-62.15,1003.7,367.9,6.26,5.56,34.00
ARGAU-2,2/2/2002,23:07,-57.66,-62.17,1003.6,369.1,6.31,5.62,34.01
ARGAU-2,2/2/2002,23:18,-57.7,-62.19,1002.8,369.7,6.33,5.63,33.99
ARGAU-2,2/2/2002,23:28,-57.74,-62.21,1002.9,369.0,6.30,5.59,33.95
ARGAU-2,2/2/2002,23:38,-57.77,-62.23,1002.3,368.9,6.24,5.51,33.98
ARGAU-2,2/2/2002,23:48,-57.81,-62.25,1002.5,368.9,6.19,5.51,33.98
ARGAU-2,2/3/2002,0:08,-57.88,-62.28,1002.8,368.5,6.27,5.56,33.99
ARGAU-2,2/3/2002,0:18,-57.92,-62.29,1002.8,367.9,6.15,5.37,33.98
ARGAU-2,2/3/2002,0:28,-57.96,-62.28,1002.6,367.1,5.74,4.86,33.92
ARGAU-2,2/3/2002,0:38,-58,-62.26,1002.6,374.4,5.09,4.17,33.83
ARGAU-2,2/3/2002,0:49,-58.05,-62.24,1002.2,389.1,4.66,3.84,33.80
ARGAU-2,2/3/2002,0:59,-58.09,-62.22,1002.1,392.3,4.55,3.76,33.79
ARGAU-2,2/3/2002,1:45,-58.27,-62.15,1001.1,393.8,4.28,3.49,33.75
ARGAU-2,2/3/2002,1:55,-58.31,-62.14,1001.0,393.3,4.31,3.50,33.76
ARGAU-2,2/3/2002,2:05,-58.35,-62.13,1001.3,392.5,4.33,3.54,33.77
ARGAU-2,2/3/2002,2:16,-58.4,-62.12,1001.3,390.4,4.30,3.51,33.78
ARGAU-2,2/3/2002,2:26,-58.44,-62.1,1000.7,390.8,4.27,3.48,33.77
ARGAU-2,2/3/2002,2:36,-58.48,-62.09,1000.7,390.8,4.25,3.45,33.77
ARGAU-2,2/3/2002,2:56,-58.54,-62.08,1000.6,388.5,4.44,3.66,33.79
ARGAU-2,2/3/2002,3:06,-58.6,-62.06,1000.5,390.7,4.43,3.68,33.78
ARGAU-2,2/3/2002,3:16,-58.64,-62.04,1000.4,392.4,4.47,3.74,33.78
ARGAU-2,2/3/2002,3:27,-58.68,-62.03,1000.2,390.6,4.54,3.79,33.79
ARGAU-2,2/3/2002,3:37,-58.72,-62.02,999.9,389.1,4.48,3.69,33.77
ARGAU-2,2/3/2002,3:47,-58.76,-62,999.6,391.5,4.36,3.51,33.72
ARGAU-2,2/3/2002,4:07,-58.84,-61.98,999.2,392.1,3.94,3.13,33.71
ARGAU-2,2/3/2002,4:17,-58.88,-61.98,999.3,392.4,4.00,3.20,33.71
ARGAU-2,2/3/2002,4:27,-58.92,-61.98,999.0,391.6,3.99,3.23,33.71
ARGAU-2,2/3/2002,4:38,-58.96,-61.98,998.7,390.2,4.09,3.31,33.72
ARGAU-2,2/3/2002,4:48,-59,-61.99,999.1,386.6,4.02,3.21,33.72
ARGAU-2,2/3/2002,4:58,-59.04,-61.98,998.6,387.8,3.87,3.22,33.73
ARGAU-2,2/3/2002,5:17,-59.12,-61.98,998.8,385.2,4.13,3.37,33.72
ARGAU-2,2/3/2002,5:28,-59.16,-61.98,998.4,384.2,4.22,3.47,33.76
ARGAU-2,2/3/2002,5:38,-59.2,-61.98,998.3,382.0,4.24,3.45,33.77
ARGAU-2,2/3/2002,5:48,-59.24,-61.97,998.3,379.9,4.19,3.41,33.77
ARGAU-2,2/3/2002,5:58,-59.28,-61.98,997.7,379.9,4.11,3.33,33.76
ARGAU-2,2/3/2002,6:09,-59.32,-61.97,997.6,381.8,4.15,3.43,33.76
ARGAU-2,2/3/2002,6:28,-59.4,-61.97,997.4,381.1,4.24,3.46,33.77
ARGAU-2,2/3/2002,6:39,-59.44,-61.97,997.6,380.7,4.21,3.44,33.77
ARGAU-2,2/3/2002,6:49,-59.48,-61.97,997.3,381.1,4.20,3.44,33.77
ARGAU-2,2/3/2002,6:59,-59.52,-61.97,997.4,381.0,4.22,3.45,33.77
ARGAU-2,2/3/2002,7:09,-59.56,-61.97,997.3,380.7,4.14,3.40,33.77
ARGAU-2,2/3/2002,7:20,-59.6,-62,997.2,381.0,4.17,3.43,33.77
ARGAU-2,2/3/2002,7:39,-59.67,-62.05,996.5,382.0,4.20,3.47,33.77
ARGAU-2,2/3/2002,7:49,-59.71,-62.08,996.7,383.1,4.25,3.54,33.77
ARGAU-2,2/3/2002,8:00,-59.75,-62.09,996.4,381.9,4.27,3.50,33.77
ARGAU-2,2/3/2002,8:10,-59.79,-62.09,995.9,380.8,4.08,3.31,33.77
ARGAU-2,2/3/2002,8:20,-59.84,-62.09,995.8,380.9,4.02,3.25,33.76
ARGAU-2,2/3/2002,8:30,-59.88,-62.09,996.1,382.5,3.97,3.24,33.74
ARGAU-2,2/3/2002,9:16,-60.07,-62.1,995.6,362.5,3.87,3.10,33.79
ARGAU-2,2/3/2002,9:26,-60.11,-62.1,995.7,351.7,3.80,3.09,33.79
ARGAU-2,2/3/2002,9:37,-60.15,-62.1,995.8,349.3,3.86,3.12,33.79
ARGAU-2,2/3/2002,9:47,-60.19,-62.1,995.8,347.5,3.77,2.99,33.80
ARGAU-2,2/3/2002,9:57,-60.23,-62.1,995.4,349.2,3.77,3.04,33.79
ARGAU-2,2/3/2002,10:08,-60.27,-62.11,995.6,348.9,3.71,2.87,33.79
ARGAU-2,2/3/2002,10:27,-60.35,-62.11,995.0,346.0,3.62,2.78,33.80
ARGAU-2,2/3/2002,10:37,-60.39,-62.11,995.6,332.6,3.33,2.54,33.81